QPF
0.05 0.06 0.05 0.05 0.04 0.03 0.04 0.06 0.09 0.08 0.06 0.07 0.04 0.04 0.06 0.05 0.07 0.07 0.07 0.07 0.04 0.03 0.02 0.01 0.01 0.00 0.00 0.00 0.00 0.00 0.00 0.01 0.01 0.02 0.02 0.03 0.03 0.03
0.06 0.06 0.06 0.05 0.06 0.05 0.05 0.06 0.07 0.07 0.05 0.05 0.04 0.03 0.04 0.03 0.03 0.04 0.08 0.07 0.04 0.04 0.03 0.01 0.00 0.00 0.00 0.00 0.00 0.01 0.01 0.01 0.01 0.01 0.01 0.02 0.02 0.02
0.05 0.06 0.06 0.06 0.06 0.05 0.05 0.06 0.06 0.06 0.05 0.04 0.03 0.03 0.03 0.03 0.04 0.03 0.05 0.06 0.04 0.03 0.02 0.01 0.01 0.01 0.01 0.01 0.00 0.00 0.00 0.01 0.01 0.01 0.01 0.01 0.01 0.02
0.06 0.05 0.05 0.06 0.07 0.05 0.04 0.05 0.05 0.06 0.05 0.04 0.04 0.04 0.04 0.04 0.04 0.03 0.02 0.02 0.03 0.03 0.03 0.02 0.02 0.01 0.01 0.00 0.00 0.00 0.00 0.00 0.00 0.01 0.01 0.01 0.01 0.01
0.07 0.06 0.05 0.05 0.06 0.05 0.04 0.03 0.04 0.04 0.06 0.05 0.04 0.04 0.03 0.03 0.04 0.03 0.03 0.02 0.01 0.02 0.02 0.02 0.02 0.01 0.01 0.01 0.01 0.01 0.01 0.00 0.01 0.01 0.01 0.01 0.01 0.01
0.05 0.06 0.06 0.05 0.05 0.05 0.05 0.04 0.04 0.05 0.06 0.06 0.06 0.07 0.05 0.04 0.06 0.04 0.04 0.03 0.02 0.02 0.02 0.03 0.03 0.02 0.02 0.02 0.01 0.01 0.01 0.01 0.00 0.01 0.01 0.01 0.01 0.01
0.06 0.07 0.07 0.07 0.07 0.06 0.05 0.05 0.06 0.05 0.05 0.06 0.08 0.08 0.06 0.07 0.06 0.05 0.04 0.04 0.04 0.03 0.04 0.05 0.05 0.04 0.03 0.03 0.03 0.03 0.02 0.01 0.01 0.01 0.01 0.01 0.01 0.02
0.05 0.05 0.07 0.09 0.08 0.07 0.06 0.06 0.06 0.05 0.05 0.06 0.06 0.06 0.06 0.06 0.07 0.07 0.07 0.07 0.05 0.04 0.04 0.04 0.05 0.07 0.06 0.05 0.06 0.06 0.04 0.02 0.01 0.01 0.01 0.01 0.01 0.01
0.03 0.03 0.04 0.04 0.06 0.07 0.07 0.07 0.06 0.05 0.05 0.05 0.05 0.05 0.05 0.06 0.07 0.07 0.07 0.07 0.06 0.06 0.06 0.05 0.04 0.05 0.06 0.07 0.07 0.06 0.05 0.04 0.03 0.02 0.01 0.01 0.01 0.01
0.03 0.03 0.03 0.03 0.04 0.05 0.06 0.06 0.06 0.05 0.05 0.05 0.05 0.04 0.05 0.05 0.06 0.06 0.06 0.07 0.06 0.06 0.07 0.06 0.05 0.04 0.04 0.06 0.09 0.08 0.06 0.04 0.03 0.03 0.02 0.01 0.01 0.01
0.04 0.04 0.04 0.04 0.03 0.04 0.04 0.05 0.05 0.05 0.05 0.05 0.06 0.05 0.05 0.05 0.05 0.05 0.05 0.06 0.05 0.05 0.06 0.06 0.05 0.06 0.06 0.06 0.07 0.08 0.08 0.07 0.05 0.04 0.03 0.02 0.02 0.01
0.08 0.07 0.04 0.03 0.04 0.04 0.04 0.04 0.04 0.03 0.04 0.05 0.05 0.05 0.04 0.05 0.05 0.04 0.04 0.04 0.04 0.04 0.05 0.07 0.07 0.09 0.08 0.06 0.07 0.10 0.10 0.09 0.07 0.06 0.04 0.03 0.02 0.01
0.04 0.03 0.03 0.03 0.03 0.03 0.03 0.04 0.04 0.04 0.04 0.05 0.04 0.03 0.04 0.04 0.05 0.04 0.05 0.05 0.05 0.05 0.06 0.09 0.09 0.10 0.10 0.06 0.07 0.09 0.11 0.10 0.10 0.09 0.07 0.05 0.04 0.02
0.03 0.03 0.03 0.02 0.02 0.02 0.03 0.03 0.04 0.04 0.03 0.03 0.03 0.03 0.03 0.03 0.03 0.04 0.06 0.05 0.04 0.05 0.07 0.09 0.10 0.10 0.10 0.08 0.07 0.08 0.10 0.13 0.14 0.14 0.13 0.09 0.07 0.06
0.02 0.03 0.05 0.06 0.05 0.04 0.04 0.05 0.05 0.04 0.03 0.03 0.03 0.03 0.04 0.04 0.04 0.05 0.07 0.08 0.07 0.06 0.07 0.08 0.09 0.10 0.11 0.09 0.07 0.08 0.10 0.11 0.12 0.12 0.13 0.12 0.11 0.10
0.01 0.01 0.03 0.04 0.06 0.07 0.07 0.07 0.07 0.05 0.04 0.04 0.03 0.03 0.04 0.05 0.06 0.07 0.07 0.07 0.08 0.07 0.08 0.08 0.08 0.08 0.08 0.07 0.07 0.07 0.08 0.09 0.10 0.12 0.12 0.12 0.12 0.13
0.01 0.01 0.01 0.02 0.04 0.06 0.07 0.08 0.08 0.06 0.07 0.05 0.03 0.03 0.04 0.05 0.06 0.07 0.08 0.08 0.08 0.07 0.07 0.09 0.10 0.10 0.09 0.08 0.08 0.07 0.08 0.08 0.08 0.08 0.09 0.09 0.08 0.08
0.01 0.01 0.01 0.02 0.02 0.04 0.06 0.07 0.07 0.07 0.07 0.06 0.06 0.06 0.06 0.06 0.06 0.07 0.08 0.09 0.10 0.08 0.08 0.08 0.10 0.10 0.10 0.10 0.09 0.09 0.09 0.08 0.08 0.08 0.08 0.08 0.07 0.07
0.02 0.01 0.01 0.01 0.01 0.02 0.04 0.05 0.05 0.04 0.04 0.05 0.08 0.09 0.08 0.08 0.09 0.09 0.11 0.12 0.12 0.11 0.10 0.10 0.11 0.11 0.10 0.09 0.10 0.09 0.09 0.08 0.10 0.10 0.09 0.07 0.07 0.07
0.02 0.02 0.01 0.01 0.01 0.02 0.02 0.02 0.03 0.04 0.05 0.06 0.08 0.08 0.08 0.07 0.07 0.07 0.09 0.11 0.12 0.14 0.15 0.14 0.14 0.14 0.13 0.11 0.11 0.11 0.10 0.09 0.08 0.09 0.09 0.07 0.07 0.08
0.02 0.02 0.02 0.02 0.02 0.02 0.03 0.03 0.03 0.03 0.05 0.08 0.08 0.07 0.08 0.09 0.10 0.09 0.09 0.10 0.11 0.13 0.14 0.14 0.13 0.15 0.15 0.13 0.12 0.12 0.12 0.11 0.09 0.08 0.08 0.08 0.08 0.09
0.02 0.02 0.02 0.02 0.02 0.02 0.02 0.03 0.03 0.03 0.04 0.05 0.06 0.07 0.08 0.09 0.09 0.08 0.08 0.09 0.09 0.11 0.13 0.15 0.15 0.15 0.14 0.14 0.12 0.11 0.12 0.12 0.11 0.10 0.09 0.09 0.09 0.09
0.03 0.03 0.03 0.03 0.02 0.02 0.02 0.03 0.03 0.04 0.06 0.08 0.09 0.09 0.10 0.10 0.09 0.07 0.07 0.08 0.08 0.09 0.09 0.11 0.12 0.14 0.13 0.10 0.10 0.10 0.11 0.11 0.11 0.11 0.11 0.10 0.09 0.08
MSLP
1007.00 1007.22 1007.44 1007.69 1007.95 1008.19 1008.40 1008.55 1008.62 1008.60 1008.49 1008.30 1008.07 1007.81 1007.58 1007.42 1007.34 1007.39 1007.57 1007.86 1008.26 1008.73 1009.24 1009.74 1010.22 1010.64 1011.00 1011.31 1011.58 1011.82 1012.07 1012.33 1012.60 1012.89 1013.17 1013.45 1013.69 1013.89
1006.23 1006.39 1006.58 1006.79 1007.02 1007.26 1007.46 1007.62 1007.72 1007.72 1007.64 1007.47 1007.24 1006.98 1006.74 1006.55 1006.45 1006.45 1006.58 1006.84 1007.21 1007.65 1008.14 1008.65 1009.14 1009.59 1010.01 1010.39 1010.74 1011.07 1011.40 1011.73 1012.06 1012.39 1012.69 1012.97 1013.19 1013.37
1005.65 1005.76 1005.90 1006.06 1006.25 1006.46 1006.66 1006.83 1006.94 1006.97 1006.92 1006.78 1006.58 1006.34 1006.09 1005.88 1005.75 1005.70 1005.77 1005.96 1006.25 1006.62 1007.06 1007.52 1007.99 1008.45 1008.89 1009.31 1009.73 1010.14 1010.54 1010.96 1011.36 1011.75 1012.10 1012.40 1012.65 1012.83
1005.27 1005.32 1005.39 1005.50 1005.64 1005.82 1006.00 1006.17 1006.29 1006.35 1006.33 1006.23 1006.07 1005.85 1005.62 1005.40 1005.23 1005.14 1005.14 1005.23 1005.43 1005.70 1006.04 1006.42 1006.82 1007.24 1007.67 1008.11 1008.56 1009.02 1009.50 1009.99 1010.47 1010.93 1011.35 1011.72 1012.02 1012.26
1005.05 1005.03 1005.04 1005.09 1005.18 1005.32 1005.47 1005.62 1005.75 1005.82 1005.83 1005.78 1005.64 1005.46 1005.25 1005.04 1004.85 1004.72 1004.65 1004.66 1004.75 1004.91 1005.13 1005.41 1005.72 1006.07 1006.45 1006.87 1007.32 1007.81 1008.33 1008.87 1009.41 1009.95 1010.46 1010.91 1011.30 1011.63
1004.93 1004.84 1004.79 1004.78 1004.82 1004.90 1005.02 1005.14 1005.25 1005.33 1005.36 1005.32 1005.22 1005.08 1004.89 1004.70 1004.51 1004.35 1004.23 1004.18 1004.18 1004.24 1004.36 1004.53 1004.75 1005.01 1005.32 1005.69 1006.11 1006.59 1007.12 1007.70 1008.29 1008.90 1009.48 1010.03 1010.52 1010.96
1004.86 1004.72 1004.61 1004.54 1004.52 1004.55 1004.61 1004.69 1004.77 1004.82 1004.84 1004.81 1004.73 1004.61 1004.45 1004.28 1004.10 1003.94 1003.81 1003.72 1003.67 1003.67 1003.71 1003.80 1003.94 1004.13 1004.38 1004.69 1005.07 1005.52 1006.04 1006.61 1007.23 1007.88 1008.53 1009.16 1009.75 1010.30
1004.81 1004.62 1004.46 1004.34 1004.26 1004.23 1004.23 1004.25 1004.27 1004.28 1004.26 1004.22 1004.13 1004.02 1003.88 1003.72 1003.56 1003.41 1003.29 1003.20 1003.14 1003.11 1003.13 1003.19 1003.29 1003.44 1003.65 1003.92 1004.26 1004.68 1005.18 1005.74 1006.36 1007.02 1007.71 1008.39 1009.05 1009.69
1004.78 1004.56 1004.36 1004.20 1004.07 1003.97 1003.90 1003.84 1003.79 1003.73 1003.66 1003.57 1003.45 1003.31 1003.16 1003.00 1002.85 1002.72 1002.61 1002.54 1002.50 1002.50 1002.53 1002.61 1002.72 1002.89 1003.10 1003.38 1003.72 1004.13 1004.61 1005.15 1005.76 1006.41 1007.10 1007.80 1008.50 1009.18
1004.81 1004.56 1004.34 1004.14 1003.97 1003.81 1003.67 1003.54 1003.40 1003.26 1003.10 1002.93 1002.75 1002.55 1002.36 1002.17 1002.00 1001.86 1001.76 1001.70 1001.69 1001.73 1001.82 1001.95 1002.14 1002.37 1002.64 1002.97 1003.36 1003.80 1004.29 1004.84 1005.43 1006.06 1006.73 1007.41 1008.10 1008.78
1004.92 1004.66 1004.42 1004.21 1004.00 1003.79 1003.59 1003.39 1003.17 1002.94 1002.69 1002.42 1002.15 1001.86 1001.58 1001.32 1001.08 1000.89 1000.76 1000.68 1000.68 1000.76 1000.90 1001.12 1001.39 1001.73 1002.12 1002.56 1003.03 1003.55 1004.09 1004.67 1005.27 1005.90 1006.54 1007.18 1007.83 1008.48
1005.11 1004.86 1004.62 1004.39 1004.16 1003.92 1003.68 1003.41 1003.13 1002.82 1002.48 1002.12 1001.73 1001.33 1000.93 1000.55 1000.20 999.90 999.67 999.53 999.50 999.57 999.74 1000.02 1000.40 1000.85 1001.37 1001.95 1002.56 1003.19 1003.84 1004.49 1005.13 1005.77 1006.39 1007.01 1007.61 1008.21
1005.36 1005.11 1004.87 1004.64 1004.40 1004.15 1003.89 1003.59 1003.27 1002.91 1002.50 1002.05 1001.56 1001.03 1000.49 999.95 999.44 998.98 998.60 998.33 998.19 998.20 998.35 998.66 999.09 999.65 1000.30 1001.03 1001.79 1002.58 1003.35 1004.11 1004.83 1005.52 1006.17 1006.77 1007.35 1007.90
1005.58 1005.34 1005.10 1004.87 1004.64 1004.39 1004.14 1003.85 1003.51 1003.13 1002.69 1002.18 1001.60 1000.96 1000.28 999.57 998.87 998.21 997.64 997.18 996.88 996.76 996.82 997.09 997.54 998.15 998.90 999.76 1000.67 1001.61 1002.53 1003.42 1004.26 1005.03 1005.73 1006.37 1006.96 1007.49
1005.71 1005.46 1005.22 1004.99 1004.77 1004.55 1004.31 1004.05 1003.76 1003.39 1002.96 1002.43 1001.80 1001.08 1000.27 999.41 998.52 997.66 996.86 996.19 995.68 995.38 995.30 995.46 995.86 996.48 997.27 998.21 999.24 1000.31 1001.38 1002.41 1003.38 1004.26 1005.06 1005.77 1006.39 1006.96
1005.66 1005.39 1005.14 1004.92 1004.71 1004.52 1004.33 1004.13 1003.88 1003.58 1003.18 1002.68 1002.05 1001.29 1000.40 999.43 998.39 997.34 996.34 995.45 994.72 994.22 993.96 993.98 994.28 994.83 995.61 996.57 997.67 998.83 1000.02 1001.17 1002.27 1003.27 1004.18 1004.99 1005.70 1006.34
1005.45 1005.15 1004.89 1004.66 1004.46 1004.30 1004.16 1004.01 1003.84 1003.61 1003.29 1002.84 1002.25 1001.50 1000.59 999.56 998.43 997.26 996.10 995.03 994.13 993.43 993.00 992.86 993.02 993.47 994.18 995.11 996.21 997.41 998.66 999.90 1001.10 1002.22 1003.24 1004.15 1004.97 1005.70
1005.12 1004.80 1004.51 1004.27 1004.08 1003.94 1003.84 1003.74 1003.64 1003.48 1003.24 1002.87 1002.34 1001.64 1000.77 999.74 998.59 997.37 996.15 994.98 993.96 993.13 992.56 992.28 992.31 992.64 993.25 994.10 995.15 996.33 997.58 998.85 1000.10 1001.30 1002.40 1003.41 1004.33 1005.15
1004.82 1004.48 1004.17 1003.92 1003.73 1003.59 1003.50 1003.44 1003.37 1003.27 1003.08 1002.78 1002.33 1001.70 1000.90 999.93 998.83 997.65 996.44 995.27 994.21 993.34 992.70 992.33 992.26 992.48 992.97 993.73 994.68 995.78 996.99 998.23 999.48 1000.69 1001.84 1002.91 1003.90 1004.79
1004.69 1004.35 1004.04 1003.77 1003.56 1003.41 1003.31 1003.25 1003.18 1003.09 1002.93 1002.67 1002.27 1001.71 1000.99 1000.12 999.12 998.03 996.91 995.83 994.84 994.00 993.37 992.98 992.86 993.00 993.41 994.05 994.89 995.88 996.98 998.15 999.34 1000.51 1001.65 1002.73 1003.74 1004.67
1004.86 1004.53 1004.22 1003.96 1003.73 1003.56 1003.42 1003.32 1003.22 1003.09 1002.90 1002.63 1002.25 1001.73 1001.08 1000.31 999.43 998.48 997.51 996.57 995.72 995.00 994.45 994.11 993.99 994.11 994.44 994.99 995.71 996.57 997.54 998.58 999.66 1000.75 1001.82 1002.86 1003.84 1004.76
1005.36 1005.07 1004.79 1004.53 1004.30 1004.09 1003.91 1003.74 1003.56 1003.36 1003.10 1002.78 1002.36 1001.85 1001.23 1000.53 999.76 998.96 998.16 997.40 996.72 996.16 995.75 995.51 995.45 995.57 995.87 996.34 996.95 997.68 998.50 999.39 1000.33 1001.30 1002.26 1003.21 1004.12 1004.98
1006.14 1005.91 1005.68 1005.45 1005.21 1004.98 1004.75 1004.50 1004.23 1003.93 1003.57 1003.15 1002.66 1002.10 1001.48 1000.81 1000.13 999.44 998.79 998.20 997.70 997.32 997.06 996.94 996.96 997.12 997.41 997.82 998.33 998.94 999.62 1000.36 1001.14 1001.96 1002.79 1003.62 1004.42 1005.20
Thickness
5761 5760 5758 5759 5759 5759 5757 5753 5744 5737 5739 5747 5751 5754 5753 5751 5749 5746 5744 5742 5740 5738 5736 5734 5732 5731 5729 5727 5725 5723 5721 5719 5718 5716 5715 5713 5712 5711
5760 5758 5757 5757 5757 5757 5755 5753 5750 5743 5739 5745 5747 5750 5750 5748 5745 5743 5741 5740 5738 5736 5734 5732 5730 5728 5726 5724 5722 5720 5718 5716 5715 5713 5712 5711 5709 5708
5758 5757 5755 5755 5753 5753 5753 5752 5749 5746 5739 5742 5746 5747 5745 5743 5741 5740 5738 5737 5735 5733 5732 5730 5728 5725 5723 5721 5719 5717 5715 5714 5712 5710 5708 5707 5705 5704
5754 5753 5752 5752 5750 5749 5748 5747 5746 5745 5740 5737 5739 5741 5741 5740 5738 5736 5736 5734 5732 5731 5729 5727 5725 5723 5721 5719 5717 5715 5712 5710 5708 5706 5705 5703 5701 5699
5751 5749 5748 5747 5745 5745 5744 5743 5743 5742 5740 5735 5734 5736 5736 5737 5734 5733 5732 5731 5730 5728 5726 5724 5722 5720 5718 5716 5713 5711 5708 5706 5704 5702 5700 5699 5697 5695
5748 5746 5745 5743 5742 5741 5740 5738 5738 5735 5734 5731 5729 5730 5730 5731 5729 5725 5724 5725 5725 5725 5722 5720 5718 5716 5714 5712 5710 5707 5705 5703 5700 5698 5696 5694 5692 5690
5743 5742 5742 5740 5739 5737 5735 5733 5732 5729 5727 5726 5724 5724 5723 5722 5720 5721 5718 5719 5720 5720 5717 5716 5714 5711 5709 5707 5705 5703 5701 5699 5696 5694 5692 5690 5688 5686
5738 5738 5737 5736 5733 5732 5730 5729 5726 5724 5721 5719 5718 5717 5717 5717 5716 5715 5712 5710 5708 5715 5711 5710 5710 5708 5706 5704 5702 5700 5697 5694 5692 5689 5688 5686 5683 5682
5733 5732 5732 5732 5728 5726 5724 5723 5721 5720 5718 5716 5713 5713 5713 5713 5710 5708 5706 5704 5704 5708 5705 5703 5705 5703 5703 5701 5699 5696 5693 5690 5687 5685 5683 5681 5679 5677
5728 5727 5725 5723 5722 5719 5717 5716 5715 5714 5714 5712 5711 5710 5710 5709 5706 5704 5702 5701 5702 5703 5701 5696 5699 5698 5700 5697 5695 5692 5689 5686 5682 5680 5677 5675 5673 5672
5722 5721 5719 5716 5714 5711 5709 5707 5707 5707 5708 5707 5706 5704 5703 5702 5700 5696 5694 5691 5691 5694 5695 5691 5692 5691 5692 5691 5689 5686 5682 5679 5677 5674 5672 5670 5667 5665
5714 5714 5712 5709 5706 5703 5701 5699 5697 5698 5699 5698 5697 5697 5697 5696 5694 5690 5688 5684 5683 5684 5688 5685 5684 5682 5680 5683 5682 5679 5676 5673 5670 5668 5666 5664 5661 5657
5707 5705 5703 5701 5697 5695 5693 5692 5691 5690 5690 5689 5689 5690 5690 5690 5689 5687 5684 5681 5678 5677 5681 5679 5676 5675 5672 5672 5673 5672 5670 5668 5664 5661 5658 5656 5654 5651
5699 5698 5695 5691 5689 5687 5686 5686 5684 5681 5681 5681 5681 5681 5682 5682 5682 5681 5680 5677 5676 5674 5675 5673 5670 5668 5665 5663 5663 5664 5663 5661 5659 5656 5653 5650 5647 5645
5691 5689 5685 5682 5680 5680 5680 5678 5675 5673 5673 5672 5672 5673 5674 5675 5675 5674 5673 5671 5670 5670 5669 5668 5665 5664 5661 5658 5657 5657 5655 5654 5652 5650 5647 5644 5642 5640
5680 5677 5676 5674 5673 5672 5671 5670 5668 5667 5666 5665 5665 5666 5668 5667 5665 5665 5663 5662 5660 5661 5663 5662 5659 5657 5654 5654 5651 5649 5649 5647 5646 5644 5642 5639 5636 5634
5668 5667 5667 5666 5665 5665 5664 5662 5661 5659 5658 5657 5656 5657 5657 5657 5656 5656 5655 5654 5652 5652 5653 5653 5653 5651 5649 5647 5644 5643 5641 5640 5638 5636 5633 5631 5630 5628
5658 5659 5659 5658 5657 5656 5655 5653 5652 5651 5650 5649 5648 5647 5647 5646 5646 5647 5646 5644 5644 5645 5645 5645 5643 5640 5638 5639 5639 5637 5634 5633 5631 5629 5627 5624 5623 5623
5650 5652 5652 5651 5650 5649 5647 5646 5644 5643 5641 5640 5639 5638 5638 5637 5637 5637 5636 5635 5635 5635 5636 5636 5635 5631 5627 5626 5629 5630 5627 5625 5623 5621 5619 5617 5616 5616
5646 5645 5644 5644 5643 5642 5640 5638 5637 5635 5633 5632 5631 5630 5629 5628 5628 5628 5627 5626 5626 5626 5627 5627 5626 5624 5622 5620 5619 5620 5621 5619 5616 5614 5612 5610 5608 5607
5639 5638 5637 5637 5636 5634 5632 5630 5628 5626 5624 5623 5622 5621 5620 5619 5619 5619 5618 5616 5616 5617 5617 5616 5617 5618 5616 5614 5611 5611 5612 5612 5611 5608 5605 5602 5599 5598
5632 5630 5630 5629 5627 5626 5623 5622 5620 5618 5616 5615 5613 5612 5611 5610 5609 5609 5609 5608 5608 5608 5608 5608 5608 5608 5607 5604 5604 5604 5603 5603 5602 5600 5598 5597 5594 5592
5623 5623 5622 5621 5620 5618 5615 5613 5611 5609 5607 5606 5604 5603 5602 5600 5600 5599 5599 5599 5599 5599 5599 5598 5598 5598 5598 5598 5597 5596 5596 5595 5594 5591 5590 5589 5589 5588